This demonstration page uses our WeatherBlox Daily Observations layout. Learn more.

Left ArrowRight Arrow

Hourly Observations for November 27, 2020

Temp ( °F °C ) Dew Point ( °F °C ) Humidity (%) Winds ( mph kmh ) Pressure ( in mb ) Visibility ( mi km ) Precip ( " mm )
12:52 am 00:52 Clear 27 -2.8 26 -3.3 96 96 N 5 7 30.18 1022 10 16 0.00 0.00
1:52 am 01:52 Clear 26 -3.3 25 -3.9 96 96 N 3 6 30.19 1022 8 13 0.00 0.00
2:44 am 02:44 Mostly Clear with Patchy Fog 26 -3.3 26 -3.3 100 100 NNW 3 6 30.24 1024 7 11 0.00 0.00
2:52 am 02:52 Mostly Clear with Patchy Fog 26 -3.3 25 -3.9 96 96 NNW 3 6 30.20 1023 7 11 0.00 0.00
3:52 am 03:52 Clear with Patchy Fog 28 -2.2 26 -3.3 92 92 NW 3 6 30.21 1023 7 11 0.00 0.00
4:52 am 04:52 Mostly Clear with Patchy Fog 27 -2.8 24 -4.4 89 89 Calm 30.21 1023 8 13 0.00 0.00
5:52 am 05:52 Clear with Patchy Fog 26 -3.3 25 -3.9 96 96 Calm 30.24 1024 10 16 0.00 0.00
6:52 am 06:52 Clear 26 -3.3 24 -4.4 92 92 Calm 30.26 1025 10 16 0.00 0.00
7:52 am 07:52 Sunny with Patchy Fog 27 -2.8 26 -3.3 96 96 Calm 30.27 1025 9 14 0.00 0.00
8:52 am 08:52 Sunny 32 0 29 -1.7 88 88 Calm 30.29 1026 9 14 0.00 0.00
9:52 am 09:52 Sunny 36 2.2 30 -1.1 79 79 N 3 6 30.30 1026 10 16 0.00 0.00
10:52 am 10:52 Sunny 40 4.4 30 -1.1 68 68 N 6 9 30.30 1026 10 16 0.00 0.00
11:52 am 11:52 Sunny 42 5.6 29 -1.7 60 60 Calm 30.29 1026 10 16 0.00 0.00
12:52 pm 12:52 Sunny 46 7.8 29 -1.7 51 51 W 7 11 30.26 1025 10 16 0.00 0.00
1:52 pm 13:52 Mostly Sunny 48 8.9 28 -2.2 46 46 SW 6 9 30.24 1024 10 16 0.00 0.00
2:52 pm 14:52 Partly Cloudy 49 9.4 27 -2.8 43 43 W 8 13 30.23 1024 10 16 0.00 0.00
3:52 pm 15:52 Partly Cloudy 50 10 27 -2.8 41 41 W 6 9 30.22 1024 10 16 0.00 0.00
4:52 pm 16:52 Mostly Sunny 48 8.9 26 -3.3 42 42 Calm 30.23 1024 10 16 0.00 0.00
5:52 pm 17:52 Clear 38 3.3 28 -2.2 68 68 SE 5 7 30.23 1024 10 16 0.00 0.00
6:52 pm 18:52 Clear 35 1.7 28 -2.2 76 76 SSE 7 11 30.23 1024 10 16 0.00 0.00
7:52 pm 19:52 Clear 36 2.2 27 -2.8 70 70 SSE 6 9 30.23 1024 10 16 0.00 0.00
8:52 pm 20:52 Clear 34 1.1 27 -2.8 76 76 SE 7 11 30.23 1024 10 16 0.00 0.00
9:52 pm 21:52 Clear 32 0 26 -3.3 79 79 SSE 8 13 30.23 1024 10 16 0.00 0.00
10:52 pm 22:52 Clear 33 0.6 26 -3.3 75 75 SE 7 11 30.23 1024 10 16 0.00 0.00
11:52 pm 23:52 Clear 30 -1.1 25 -3.9 82 82 SE 7 11 30.23 1024 10 16 0.00 0.00

Powered by AerisWeather